GW0206 Weather Reports


time (UTC)temp
C
wind
direction
speed
KPH
gust
KPH
rain 1hr
cm
rain 24hr
cm
rain mn
cm
humidity
%
barometer
mb
20260506032003 9 238 8.0 14.5 0.25 1.32 1.32 95 1008.2
20260506031506 9 218 8.0 25.7 0.30 1.30 1.30 95 1008.3
20260506031003 9 220 16.1 25.7 0.41 1.30 1.30 94 1008.3
20260506030502 10 186 9.7 19.3 0.48 1.30 1.30 94 1008.5
20260506030004 10 217 12.9 19.3 0.48 1.27 1.27 94 1008.6
20260506025505 10 198 4.8 12.9 0.51 1.27 1.27 94 1008.7
20260506025004 10 189 3.2 12.9 0.48 1.24 1.24 95 1008.8
20260506024502 10 145 3.2 11.3 0.51 1.24 1.24 95 1008.8
20260506024002 10 173 3.2 11.3 0.43 1.17 1.17 95 1008.8
20260506023502 10 232 3.2 14.5 0.46 1.17 1.17 94 1008.5
20260506023007 10 226 4.8 14.5 0.43 1.14 1.14 93 1008.6
20260506022502 11 242 4.8 12.9 0.41 1.12 1.12 93 1008.7
20260506022003 11 179 4.8 14.5 0.38 1.07 1.07 93 1008.6
20260506021503 11 196 4.8 14.5 0.30 0.99 0.99 93 1008.0
20260506021004 12 161 3.2 14.5 0.20 0.89 0.89 94 1008.2
20260506020507 12 281 3.2 14.5 0.13 0.81 0.81 94 1007.9
20260506020006 12 265 4.8 12.9 0.10 0.79 0.79 94 1007.8
20260506015503 13 236 6.4 12.9 0.10 0.76 0.76 94 1007.8
20260506015003 13 241 3.2 4.8 0.10 0.76 0.76 95 1007.8
20260506014506 13 150 0.0 0.0 0.08 0.74 0.74 95 1007.8
20260506014004 13 150 0.0 0.0 0.08 0.74 0.74 95 1007.8
20260506013505 13 150 0.0 0.0 0.05 0.71 0.71 95 1007.8
20260506013004 13 150 0.0 0.0 0.08 0.71 0.71 95 1007.8
20260506012503 13 150 0.0 1.6 0.08 0.71 0.71 95 1007.8
20260506012003 13 150 0.0 3.2 0.05 0.69 0.69 95 1007.7
20260506011512 13 150 0.0 3.2 0.08 0.69 0.69 95 1007.7
20260506011005 13 150 0.0 0.0 0.08 0.69 0.69 95 1007.6
20260506010503 13 150 0.0 0.0 0.08 0.69 0.69 95 1007.7
20260506010006 13 150 0.0 0.0 0.08 0.69 0.69 95 1007.6
20260506005503 13 150 0.0 0.0 0.08 0.66 0.66 94 1007.6
20260506005003 13 150 0.0 0.0 0.10 0.66 0.66 94 1007.6
20260506004516 13 150 0.0 0.0 0.10 0.66 0.66 94 1007.7
20260506004003 13 150 0.0 0.0 0.15 0.66 0.66 94 1007.7
20260506003503 13 150 0.0 0.0 0.20 0.66 0.66 94 1007.7
20260506003006 13 150 0.0 0.0 0.20 0.64 0.64 94 1007.7
20260506002504 13 150 0.0 0.0 0.28 0.64 0.64 94 1007.7
20260506002003 13 150 0.0 0.0 0.41 0.64 0.64 94 1007.8
20260506001504 13 150 0.0 1.6 0.51 0.61 0.61 94 1007.7
20260506001004 13 150 0.0 1.6 0.53 0.61 0.61 94 1007.7
20260506000502 13 150 0.0 1.6 0.53 0.61 0.61 93 1007.8
20260506000003 13 150 0.0 1.6 0.53 0.61 0.61 93 1007.8
20260505235502 13 150 0.0 1.6 0.53 0.58 0.58 93 1007.8
20260505235003 13 145 0.0 9.7 0.51 0.56 0.56 93 1007.9
20260505234509 13 161 1.6 11.3 0.51 0.56 0.56 93 1007.9
20260505234007 13 106 0.0 12.9 0.46 0.51 0.51 92 1008.0
20260505233504 13 99 4.8 12.9 0.41 0.46 0.46 92 1008.0
20260505233020 13 120 0.0 19.3 0.38 0.43 0.43 91 1008.1
20260505232505 14 140 9.7 22.5 0.30 0.36 0.36 90 1008.2
20260505232003 15 153 8.0 22.5 0.18 0.23 0.23 90 1008.3
20260505231520 15 113 6.4 17.7 0.05 0.10 0.10 89 1008.3
20260505231007 15 156 0.0 8.0 0.03 0.08 0.08 88 1007.6
20260505230503 15 167 0.0 8.0 0.03 0.08 0.08 88 1007.4
20260505230009 15 166 1.6 8.0 0.03 0.08 0.08 88 1007.3
20260505225510 15 173 1.6 8.0 0.00 0.05 0.05 88 1007.3
20260505225003 15 195 0.0 3.2 0.00 0.05 0.05 87 1007.2
20260505224505 15 195 0.0 6.4 0.00 0.05 0.05 88 1007.2
20260505224003 15 195 1.6 6.4 0.00 0.05 0.05 88 1007.3
20260505223504 15 190 0.0 6.4 0.00 0.05 0.05 88 1007.3
20260505223005 15 190 0.0 6.4 0.00 0.05 0.05 87 1007.3
20260505222505 15 188 1.6 8.0 0.00 0.05 0.05 87 1007.3
20260505222007 16 130 0.0 8.0 0.00 0.05 0.05 87 1007.5
20260505221513 16 177 3.2 8.0 0.00 0.05 0.05 86 1007.4
20260505221003 16 159 0.0 8.0 0.00 0.05 0.05 86 1007.4
20260505220505 16 186 3.2 9.7 0.00 0.05 0.05 87 1007.5
20260505220040 16 162 1.6 9.7 0.00 0.05 0.05 86 1007.6
20260505215510 16 142 0.0 8.0 0.00 0.05 0.05 85 1007.7
20260505215004 16 124 0.0 12.9 0.00 0.05 0.05 85 1007.6
20260505214525 16 161 3.2 12.9 0.00 0.05 0.05 85 1007.6
20260505214010 16 146 1.6 11.3 0.00 0.05 0.05 86 1007.6
20260505213503 16 137 3.2 12.9 0.00 0.05 0.05 86 1007.5
20260505213006 16 134 4.8 22.5 0.00 0.05 0.05 85 1007.5
20260505212504 16 110 4.8 22.5 0.00 0.05 0.05 85 1007.5
20260505212004 16 104 9.7 19.3 0.00 0.05 0.05 85 1007.5
20260505211510 16 99 12.9 19.3 0.03 0.05 0.05 85 1007.5
20260505211005 16 76 8.0 16.1 0.03 0.05 0.05 85 1007.4
20260505210504 16 98 6.4 19.3 0.05 0.05 0.05 86 1007.5
20260505210017 16 63 9.7 22.5 0.05 0.05 0.05 86 1007.5
20260505205507 16 53 9.7 22.5 0.05 0.05 0.05 85 1007.5
20260505205008 16 109 9.7 22.5 0.05 0.05 0.05 86 1007.5
20260505204523 16 116 11.3 25.7 0.05 0.05 0.05 85 1007.5
20260505204002 16 39 9.7 25.7 0.05 0.05 0.05 86 1007.5
20260505203506 16 56 11.3 20.9 0.05 0.05 0.05 87 1007.5
20260505203024 16 75 16.1 20.9 0.05 0.05 0.05 86 1007.5
20260505202508 16 20 11.3 20.9 0.05 0.05 0.05 84 1007.6
20260505202004 16 28 8.0 20.9 0.05 0.05 0.05 83 1007.7
20260505201518 17 103 9.7 24.1 0.03 0.03 0.03 80 1007.8
20260505201004 17 75 14.5 24.1 0.03 0.03 0.03 77 1007.8
20260505200501 18 58 9.7 22.5 0.00 0.00 0.00 74 1007.8
20260505200012 18 50 14.5 22.5 0.00 0.00 0.00 70 1007.6
20260505195507 18 45 9.7 19.3 0.00 0.00 0.00 70 1007.5
20260505195007 18 23 8.0 17.7 0.00 0.00 0.00 68 1007.6
20260505194519 19 148 11.3 20.9 0.00 0.00 0.00 67 1007.6
20260505194011 19 84 11.3 20.9 0.00 0.00 0.00 67 1007.6
20260505193508 19 102 8.0 17.7 0.00 0.00 0.00 67 1007.6
20260505193033 19 91 9.7 16.1 0.00 0.00 0.00 67 1007.7
20260505192506 19 61 8.0 19.3 0.00 0.00 0.00 69 1007.6
20260505192008 19 94 8.0 20.9 0.00 0.00 0.00 69 1007.7
20260505191526 18 90 11.3 20.9 0.00 0.00 0.00 68 1007.7
20260505191009 18 102 9.7 19.3 0.00 0.00 0.00 68 1007.7
20260505190506 18 93 11.3 17.7 0.00 0.00 0.00 69 1007.8
20260505190025 18 134 4.8 17.7 0.00 0.00 0.00 70 1007.9
20260505185502 18 57 6.4 22.5 0.00 0.00 0.00 69 1008.1
20260505185003 18 84 11.3 22.5 0.00 0.00 0.00 69 1008.2
20260505184515 18 115 8.0 20.9 0.00 0.00 0.00 70 1008.2
20260505184006 18 90 12.9 27.4 0.00 0.00 0.00 69 1008.2
20260505183507 18 103 14.5 27.4 0.00 0.00 0.00 69 1008.4
20260505183019 18 94 11.3 25.7 0.00 0.00 0.00 69 1008.6
20260505182506 18 72 14.5 33.8 0.00 0.00 0.00 68 1008.7
20260505182002 18 126 16.1 33.8 0.00 0.00 0.00 69 1008.6
20260505181504 18 103 16.1 37.0 0.00 0.00 0.00 68 1008.5
20260505181003 18 67 20.9 37.0 0.00 0.00 0.00 67 1008.4
20260505180504 18 47 19.3 38.6 0.00 0.00 0.00 67 1008.3
20260505180008 18 33 22.5 38.6 0.00 0.00 0.00 67 1008.2
20260505175503 19 88 17.7 33.8 0.00 0.00 0.00 67 1008.2
20260505175003 19 59 16.1 37.0 0.00 0.00 0.00 66 1008.0
20260505174508 19 34 14.5 37.0 0.00 0.00 0.00 67 1008.0
20260505174006 19 140 16.1 37.0 0.00 0.00 0.00 66 1007.9
20260505173506 20 60 16.1 37.0 0.00 0.00 0.00 66 1008.0
20260505173002 19 37 24.1 37.0 0.00 0.00 0.00 66 1007.9
20260505172504 19 36 19.3 40.2 0.00 0.00 0.00 65 1007.9
20260505172003 19 55 22.5 40.2 0.00 0.00 0.00 65 1008.0
20260505171503 19 55 25.7 40.2 0.00 0.00 0.00 65 1007.9
20260505171003 20 69 14.5 38.6 0.00 0.00 0.00 65 1008.0
20260505170502 20 103 19.3 38.6 0.00 0.00 0.00 64 1007.8
20260505170004 20 104 16.1 32.2 0.00 0.00 0.00 65 1007.8
20260505165503 20 100 11.3 40.2 0.00 0.00 0.00 65 1007.9
20260505165004 20 46 22.5 40.2 0.00 0.00 0.00 65 1008.0
20260505164508 20 73 16.1 38.6 0.00 0.00 0.00 64 1008.0
20260505164004 20 37 9.7 33.8 0.00 0.00 0.00 64 1008.0
20260505163504 20 115 16.1 33.8 0.00 0.00 0.00 65 1007.9
20260505163011 20 67 22.5 33.8 0.00 0.00 0.00 63 1007.9
20260505162507 20 89 19.3 32.2 0.00 0.00 0.00 63 1008.0
20260505162002 20 101 14.5 27.4 0.00 0.00 0.00 63 1007.9
20260505161506 21 85 16.1 27.4 0.00 0.00 0.00 63 1007.8
20260505161009 20 58 16.1 32.2 0.00 0.00 0.00 64 1007.8
20260505160505 20 9 17.7 32.2 0.00 0.00 0.00 63 1007.6
20260505153012 20 89 14.5 30.6 0.00 0.00 0.00 68 1007.6
20260505152504 20 74 14.5 29.0 0.00 0.00 0.00 67 1007.5
20260505152005 20 83 17.7 29.0 0.00 0.00 0.00 66 1007.6
20260505151516 20 63 16.1 37.0 0.00 0.00 0.00 69 1007.4
20260505151007 20 53 14.5 37.0 0.00 0.00 0.00 67 1007.5
20260505150503 19 26 19.3 29.0 0.00 0.00 0.00 69 1007.4
20260505140505 17 33 14.5 29.0 0.00 0.00 0.00 74 1007.5
20260505125007 15 61 6.4 16.1 0.00 0.00 0.00 77 1007.1
20260505124533 15 327 6.4 14.5 0.00 0.00 0.00 76 1007.0
20260505124008 15 42 6.4 14.5 0.00 0.00 0.00 77 1006.9
20260505123507 15 348 8.0 14.5 0.00 0.00 0.00 77 1006.8
20260505123022 15 14 3.2 14.5 0.00 0.00 0.00 76 1006.9
20260505122507 15 34 6.4 14.5 0.00 0.00 0.00 76 1006.9
20260505122010 15 34 4.8 11.3 0.00 0.00 0.00 76 1006.8
20260505121519 15 17 3.2 11.3 0.00 0.00 0.00 76 1006.7
20260505121007 15 24 6.4 14.5 0.00 0.00 0.00 76 1006.7
20260505120504 15 16 4.8 14.5 0.00 0.00 0.00 75 1006.9
20260505120012 15 31 4.8 12.9 0.00 0.00 0.00 75 1006.9
20260505115506 15 32 4.8 12.9 0.00 0.00 0.00 75 1006.9
20260505115006 16 42 4.8 11.3 0.00 0.00 0.00 74 1007.0
20260505114512 16 44 4.8 14.5 0.00 0.00 0.00 74 1007.0
20260505114007 16 57 4.8 14.5 0.00 0.00 0.00 74 1007.0
20260505113507 16 23 6.4 14.5 0.00 0.00 0.00 73 1007.0
20260505113023 16 11 3.2 19.3 0.00 0.00 0.00 73 1006.8
20260505112506 16 58 9.7 19.3 0.00 0.00 0.00 73 1006.8
20260505112006 16 52 8.0 25.7 0.00 0.00 0.00 73 1006.7
20260505111526 16 42 14.5 25.7 0.00 0.00 0.00 73 1006.7
20260505111015 16 76 9.7 20.9 0.00 0.00 0.00 73 1006.7
20260505110506 16 58 9.7 20.9 0.00 0.00 0.00 72 1006.6
20260505102009 16 67 14.5 32.2 0.00 0.00 0.00 73 1006.2
20260505101528 16 39 14.5 32.2 0.00 0.00 0.00 73 1006.2
20260505101007 15 24 9.7 22.5 0.00 0.00 0.00 74 1006.2
20260505100508 15 45 9.7 27.4 0.00 0.00 0.00 74 1006.2
20260505100026 16 61 12.9 27.4 0.00 0.00 0.00 73 1006.1
20260505095506 16 80 8.0 20.9 0.00 0.00 0.00 73 1006.2
20260505095010 16 50 9.7 29.0 0.00 0.00 0.00 73 1006.1
20260505094531 16 46 12.9 29.0 0.00 0.00 0.00 73 1005.9
20260505094010 16 66 11.3 24.1 0.00 0.00 0.00 72 1006.0
20260505093507 16 51 12.9 32.2 0.00 0.00 0.00 72 1005.9
20260505093020 16 65 17.7 32.2 0.00 0.00 0.00 72 1005.8
20260505092508 16 59 9.7 22.5 0.00 0.00 0.00 72 1005.7
20260505092005 16 49 11.3 22.5 0.00 0.00 0.00 72 1005.7
20260505091503 16 42 9.7 24.1 0.00 0.00 0.00 72 1005.7
20260505091004 16 69 11.3 30.6 0.00 0.00 0.00 71 1005.6
20260505090503 16 49 14.5 37.0 0.00 0.00 0.00 71 1005.4
20260505090005 16 66 16.1 37.0 0.00 0.00 0.00 71 1005.4
20260505085504 16 70 19.3 32.2 0.00 0.00 0.00 71 1005.4
20260505085003 16 63 14.5 37.0 0.00 0.00 0.00 72 1005.3
20260505084525 16 78 17.7 37.0 0.00 0.00 0.00 72 1005.3
20260505084002 16 71 11.3 37.0 0.00 0.00 0.00 72 1005.3
20260505083503 16 61 17.7 37.0 0.00 0.00 0.00 71 1005.3
20260505083007 16 71 17.7 32.2 0.00 0.00 0.00 73 1005.3
20260505082505 16 55 16.1 32.2 0.00 0.00 0.00 73 1005.2
20260505082002 16 19 12.9 25.7 0.00 0.00 0.00 73 1005.1
20260505081515 16 53 14.5 25.7 0.00 0.00 0.00 73 1005.1
20260505081004 16 46 11.3 22.5 0.00 0.00 0.00 73 1005.0
20260505080503 16 57 11.3 22.5 0.00 0.00 0.00 73 1004.9
20260505080009 16 62 12.9 22.5 0.00 0.00 0.00 73 1004.9
20260505075504 16 33 12.9 22.5 0.00 0.00 0.00 73 1004.9
20260505075003 16 19 11.3 22.5 0.00 0.00 0.00 73 1004.9
20260505074508 16 57 14.5 22.5 0.00 0.00 0.00 71 1004.8
20260505074004 16 49 12.9 24.1 0.00 0.00 0.00 71 1004.7
20260505073503 16 50 11.3 24.1 0.00 0.00 0.00 70 1004.7
20260505073008 16 42 9.7 24.1 0.00 0.00 0.00 70 1004.6
20260505072506 16 78 12.9 24.1 0.00 0.00 0.00 70 1004.6
20260505072008 16 32 12.9 24.1 0.00 0.00 0.00 70 1004.6
20260505071508 16 82 9.7 20.9 0.00 0.00 0.00 70 1004.6
20260505071004 16 69 12.9 20.9 0.00 0.00 0.00 70 1004.6
20260505070504 17 77 11.3 25.7 0.00 0.00 0.00 70 1004.6
20260505070012 17 37 12.9 25.7 0.00 0.00 0.00 70 1004.6
20260505065506 17 48 14.5 22.5 0.00 0.00 0.00 70 1004.7
20260505065004 17 63 11.3 22.5 0.00 0.00 0.00 69 1004.7
20260505064512 17 53 12.9 22.5 0.00 0.00 0.00 69 1004.8
20260505064009 17 54 11.3 24.1 0.00 0.00 0.00 70 1004.8
20260505063504 17 52 9.7 25.7 0.00 0.00 0.00 69 1004.9
20260505063010 17 76 14.5 25.7 0.00 0.00 0.00 69 1004.9
20260505062505 17 59 12.9 25.7 0.00 0.00 0.00 69 1004.9
20260505062005 17 19 12.9 29.0 0.00 0.00 0.00 69 1004.9
20260505061518 17 71 9.7 29.0 0.00 0.00 0.00 70 1005.0
20260505061004 17 65 14.5 24.1 0.00 0.00 0.00 69 1005.0
20260505060507 17 24 12.9 24.1 0.00 0.00 0.00 69 1005.1
20260505060010 17 36 9.7 22.5 0.00 0.00 0.00 69 1005.1
20260505055503 17 22 8.0 22.5 0.00 0.00 0.00 69 1005.1
20260505055005 17 57 12.9 24.1 0.00 0.00 0.00 69 1005.2
20260505054517 17 15 16.1 24.1 0.00 0.00 0.00 68 1005.4
20260505054010 17 38 11.3 24.1 0.00 0.00 0.00 68 1005.4
20260505053502 17 22 12.9 24.1 0.00 0.00 0.00 68 1005.5
20260505053012 17 40 11.3 22.5 0.00 0.00 0.00 68 1005.5
20260505052503 17 63 9.7 24.1 0.00 0.00 0.00 68 1005.6
20260505052006 17 32 9.7 24.1 0.00 0.00 0.00 68 1005.5
20260505051517 17 51 12.9 25.7 0.00 0.00 0.00 68 1005.6
20260505051003 17 39 11.3 25.7 0.00 0.00 0.00 68 1005.7
20260505050506 17 40 9.7 25.7 0.00 0.00 0.00 68 1005.7
20260505041518 17 13 12.9 22.5 0.00 0.00 0.00 70 1005.8
20260505041006 17 17 9.7 22.5 0.00 0.00 0.00 69 1005.8
20260505040508 17 29 11.3 24.1 0.00 0.00 0.00 69 1005.9
20260505040016 17 23 9.7 24.1 0.00 0.00 0.00 69 1005.9
20260505035507 17 49 9.7 19.3 0.00 0.00 0.00 69 1006.0
20260505035006 17 47 8.0 20.9 0.00 0.00 0.00 69 1006.1
20260505034524 17 78 11.3 22.5 0.00 0.00 0.00 69 1006.0
20260505034008 17 44 9.7 27.4 0.00 0.00 0.00 69 1006.0
20260505033511 16 22 9.7 27.4 0.00 0.00 0.00 70 1005.9
20260505033016 16 67 11.3 22.5 0.00 0.00 0.00 70 1005.9
20260505032507 16 355 6.4 14.5 0.00 0.00 0.00 70 1005.9